This is the latest recevied weather packets stored in our database for station/object WB9FIU. If no packets are shown the sender has not sent any weather packets the latest 1 day(s).
| Time | Temp. | Humidity | Pressure | Rain* | Wind** | Luminosity | Snow |
|---|---|---|---|---|---|---|---|
| 1778046781 | 9.44° C | 93% | 1008 hPa | 1.27 mm | 1.34 m/s, 356° | - | - |
| 1778046720 | 9.44° C | 94% | 1007.9 hPa | 1.27 mm | 0.89 m/s, 322° | - | - |
| 1778046662 | 9.44° C | 94% | 1007.9 hPa | 1.27 mm | 0.89 m/s, 322° | - | - |
| 1778046602 | 9.44° C | 94% | 1007.9 hPa | 1.02 mm | 1.34 m/s, 7° | - | - |
| 1778046542 | 9.44° C | 94% | 1007.9 hPa | 1.02 mm | 1.34 m/s, 7° | - | - |
| 1778046482 | 9.44° C | 94% | 1007.8 hPa | 1.02 mm | 0.89 m/s, 33° | - | - |
| 1778046423 | 9.44° C | 94% | 1007.8 hPa | 1.02 mm | 0.45 m/s, 344° | - | - |
| 1778046365 | 9.44° C | 94% | 1007.8 hPa | 1.02 mm | 0.45 m/s, 344° | - | - |
| 1778046302 | 9.44° C | 94% | 1007.7 hPa | 1.27 mm | 0.45 m/s, 338° | - | - |
| 1778046122 | 9.44° C | 94% | 1007.6 hPa | 1.27 mm | 1.34 m/s, 357° | - | - |
| 1778046063 | 9.44° C | 94% | 1007.6 hPa | 1.27 mm | 0.45 m/s, 13° | - | - |
| 1778046002 | 9.44° C | 94% | 1007.7 hPa | 1.27 mm | 0.45 m/s, 313° | - | - |
| 1778045943 | 9.44° C | 94% | 1007.6 hPa | 1.27 mm | 1.34 m/s, 337° | - | - |
| 1778045882 | 9.44° C | 94% | 1007.6 hPa | 1.27 mm | 0.89 m/s, 318° | - | - |
| 1778045822 | 9.44° C | 94% | 1007.6 hPa | 1.27 mm | 0.89 m/s, 318° | - | - |
| 1778045762 | 9.44° C | 94% | 1007.6 hPa | 1.27 mm | 2.68 m/s, 349° | - | - |
| 1778045702 | 9.44° C | 94% | 1007.6 hPa | 1.27 mm | 2.24 m/s, 346° | - | - |
| 1778045642 | 9.44° C | 94% | 1007.5 hPa | 1.27 mm | 0.89 m/s, 351° | - | - |
| 1778045581 | 9.44° C | 94% | 1007.5 hPa | 1.27 mm | 0.89 m/s, 351° | - | - |
| 1778045522 | 9.44° C | 94% | 1007.6 hPa | 1.27 mm | 1.34 m/s, 10° | - | - |
| 1778045461 | 9.44° C | 94% | 1007.6 hPa | 1.27 mm | 1.34 m/s, 348° | - | - |
| 1778045401 | 9.44° C | 94% | 1007.6 hPa | 1.27 mm | 1.34 m/s, 0° | - | - |
| 1778045341 | 9.44° C | 94% | 1007.6 hPa | 1.27 mm | 1.34 m/s, 0° | - | - |
| 1778045283 | 9.44° C | 94% | 1007.5 hPa | 1.27 mm | 0.45 m/s, 1° | - | - |
| 1778045221 | 9.44° C | 94% | 1007.5 hPa | 1.27 mm | 0.45 m/s, 337° | - | - |
* Rain latest hour (hover to see other rain measurements)
** Current wind speed in m/s (hover to see current wind gust speed)